Weather History for Winchester, VA

Change the Weather History Date:

Friday, October 18, 2013

  Actual Average Record
Temperature  
Mean Temperature 53 °F -  
Max Temperature 64 °F 63 °F 82 °F (1998)
Min Temperature 42 °F 43 °F 28 °F (1982)
Degree Days  
Heating Degree Days 12    
Growing Degree Days 3 (Base 50)    
Moisture  
Dew Point 43 °F    
Average Humidity 65    
Maximum Humidity 100    
Minimum Humidity 42    
Precipitation  
Precipitation 0.00 in - - ()
Sea Level Pressure  
Sea Level Pressure 29.98 in    
Wind  
Wind Speed 10 mph (WNW)    
Max Wind Speed 17 mph    
Max Gust Speed 26 mph    
Visibility 10 miles    
Events      
Averages and records for this station are not official NWS values.
T = Trace of Precipitation, MM = Missing Value Source: NWS Daily Summary

Daily Weather History Graph

Daily Weather History Graph

Search for Another Location

Airport:

Trip Planner

Search our weather history database for the weather conditions in past years. The results will help you decide how hot, cold, wet, or windy it might be!

Date:

Astronomy

Oct. 18, 2013 Rise Set
Actual Time 7:25 AM EDT 6:29 PM EDT
Civil Twilight 6:58 AM EDT 6:56 PM EDT
Nautical Twilight 6:27 AM EDT 7:27 PM EDT
Astronomical Twilight 5:56 AM EDT 7:58 PM EDT
Moon 6:18 PM EDT (10/18) 6:59 AM EDT (10/18)
Length of Visible Light 11h 57m
Length of Day
11h 03m
Full, 100% of the Moon is Illuminated
Oct 18
Full
Oct 18
Full
Oct 26
Last Quarter
Nov 3
New
Nov 10
First Quarter

Hourly Weather History & Observations

Time (EDT) Temp. Dew Point Humidity Pressure Visibility Wind Dir Wind Speed Gust Speed Precip Events Conditions
12:15 AM 55.4 °F 46.4 °F 72% 29.88 in 10.0 mi NW 17.3 mph - N/A   Mostly Cloudy
12:35 AM 55.4 °F 46.4 °F 72% 29.89 in 10.0 mi WNW 12.7 mph 21.9 mph N/A   Mostly Cloudy
12:55 AM 55.4 °F 44.6 °F 67% 29.90 in 10.0 mi West 16.1 mph 19.6 mph N/A   Overcast
1:15 AM 55.4 °F 44.6 °F 67% 29.90 in 10.0 mi WNW 17.3 mph 26.5 mph N/A   Mostly Cloudy
1:35 AM 55.4 °F 44.6 °F 67% 29.90 in 10.0 mi West 12.7 mph 18.4 mph N/A   Mostly Cloudy
1:55 AM 55.4 °F 44.6 °F 67% 29.90 in 10.0 mi West 9.2 mph - N/A   Overcast
2:15 AM 55.4 °F 44.6 °F 67% 29.91 in 10.0 mi WSW 6.9 mph - N/A   Overcast
2:35 AM 55.4 °F 44.6 °F 67% 29.91 in 10.0 mi WSW 8.1 mph - N/A   Overcast
2:55 AM 55.4 °F 44.6 °F 67% 29.91 in 10.0 mi West 9.2 mph - N/A   Overcast
3:15 AM 55.4 °F 44.6 °F 67% 29.91 in 10.0 mi WNW 10.4 mph - N/A   Overcast
3:35 AM 55.4 °F 44.6 °F 67% 29.91 in 10.0 mi West 8.1 mph - N/A   Overcast
3:55 AM 53.6 °F 42.8 °F 67% 29.91 in 10.0 mi West 10.4 mph - N/A   Overcast
4:15 AM 53.6 °F 42.8 °F 67% 29.92 in 10.0 mi WNW 8.1 mph - N/A   Overcast
4:35 AM 53.6 °F 42.8 °F 67% 29.92 in 10.0 mi WNW 12.7 mph 19.6 mph N/A   Mostly Cloudy
4:55 AM 53.6 °F 41.0 °F 62% 29.93 in 10.0 mi West 10.4 mph - N/A   Scattered Clouds
5:15 AM 53.6 °F 41.0 °F 62% 29.93 in 10.0 mi West 8.1 mph - N/A   Scattered Clouds
5:35 AM 51.8 °F 41.0 °F 67% 29.94 in 10.0 mi West 4.6 mph - N/A   Mostly Cloudy
5:55 AM 51.8 °F 41.0 °F 67% 29.94 in 10.0 mi West 6.9 mph - N/A   Mostly Cloudy
6:15 AM 51.8 °F 41.0 °F 67% 29.95 in 10.0 mi West 9.2 mph - N/A   Scattered Clouds
6:35 AM 51.8 °F 41.0 °F 67% 29.95 in 10.0 mi WNW 15.0 mph 24.2 mph N/A   Clear
6:55 AM 51.8 °F 39.2 °F 62% 29.96 in 10.0 mi West 16.1 mph 26.5 mph N/A   Clear
7:15 AM 51.8 °F 39.2 °F 62% 29.97 in 10.0 mi West 16.1 mph 21.9 mph N/A   Clear
7:35 AM 51.8 °F 37.4 °F 58% 29.98 in 10.0 mi West 11.5 mph - N/A   Clear
7:55 AM 51.8 °F 39.2 °F 62% 29.99 in 10.0 mi West 8.1 mph - N/A   Scattered Clouds
8:15 AM 51.8 °F 39.2 °F 62% 30.00 in 10.0 mi West 13.8 mph 21.9 mph N/A   Clear
8:35 AM 51.8 °F 39.2 °F 62% 30.00 in 10.0 mi WNW 11.5 mph 17.3 mph N/A   Clear
8:55 AM 53.6 °F 41.0 °F 62% 30.01 in 10.0 mi WNW 10.4 mph - N/A   Clear
9:15 AM 53.6 °F 41.0 °F 62% 30.02 in 10.0 mi West 13.8 mph 18.4 mph N/A   Scattered Clouds
9:35 AM 53.6 °F 41.0 °F 62% 30.02 in 10.0 mi West 13.8 mph 19.6 mph N/A   Scattered Clouds
9:55 AM 55.4 °F 41.0 °F 58% 30.02 in 10.0 mi West 12.7 mph 17.3 mph N/A   Clear
10:15 AM 55.4 °F 41.0 °F 58% 30.03 in 10.0 mi WNW 10.4 mph 20.7 mph N/A   Clear
10:35 AM 55.4 °F 41.0 °F 58% 30.03 in 10.0 mi West 13.8 mph 19.6 mph N/A   Scattered Clouds
10:55 AM 57.2 °F 41.0 °F 55% 30.03 in 10.0 mi West 15.0 mph - N/A   Scattered Clouds
11:15 AM 57.2 °F 41.0 °F 55% 30.03 in 10.0 mi WNW 12.7 mph 20.7 mph N/A   Unknown
11:30 AM 57.2 °F 42.8 °F 59% 30.03 in 10.0 mi WNW 11.5 mph 18.4 mph N/A   Unknown
11:35 AM 57.2 °F 42.8 °F 59% 30.03 in 10.0 mi NW 11.5 mph 18.4 mph N/A   Unknown
11:49 AM 57.2 °F 42.8 °F 59% 30.04 in 10.0 mi NW 11.5 mph - N/A   Clear
11:55 AM 59.0 °F 42.8 °F 55% 30.03 in 10.0 mi WNW 11.5 mph 18.4 mph N/A   Clear
12:15 PM 59.0 °F 42.8 °F 55% 30.03 in 10.0 mi WNW 13.8 mph - N/A   Scattered Clouds
12:35 PM 59.0 °F 42.8 °F 55% 30.03 in 10.0 mi NW 9.2 mph - N/A   Scattered Clouds
12:55 PM 60.8 °F 42.8 °F 52% 30.02 in 10.0 mi West 9.2 mph - N/A   Unknown
1:09 PM 62.6 °F 44.6 °F 52% 30.01 in 10.0 mi West 10.4 mph 19.6 mph N/A   Unknown
1:15 PM 60.8 °F 42.8 °F 52% 30.00 in 10.0 mi WNW 9.2 mph 19.6 mph N/A   Unknown
1:35 PM 60.8 °F 42.8 °F 52% 30.00 in 10.0 mi WNW 5.8 mph - N/A   Mostly Cloudy
1:55 PM 62.6 °F 42.8 °F 48% 29.99 in 10.0 mi West 9.2 mph - N/A   Scattered Clouds
2:09 PM 64.4 °F 44.6 °F 49% 29.99 in 10.0 mi West 9.2 mph - N/A   Mostly Cloudy
2:15 PM 62.6 °F 41.0 °F 45% 29.99 in 10.0 mi NW 6.9 mph - N/A   Scattered Clouds
2:35 PM 62.6 °F 42.8 °F 48% 29.98 in 10.0 mi NW 6.9 mph - N/A   Scattered Clouds
2:55 PM 62.6 °F 42.8 °F 48% 29.98 in 10.0 mi Calm Calm - N/A   Clear
3:15 PM 64.4 °F 42.8 °F 45% 29.98 in 10.0 mi NW 8.1 mph - N/A   Unknown
3:35 PM 64.4 °F 42.8 °F 45% 29.98 in 10.0 mi WNW 8.1 mph - N/A   Clear
3:55 PM 64.4 °F 41.0 °F 42% 29.97 in 10.0 mi West 4.6 mph - N/A   Clear
4:15 PM 64.4 °F 42.8 °F 45% 29.97 in 10.0 mi WNW 8.1 mph - N/A   Clear
4:35 PM 64.4 °F 41.0 °F 42% 29.96 in 10.0 mi WNW 4.6 mph - N/A   Clear
4:55 PM 64.4 °F 42.8 °F 45% 29.96 in 10.0 mi WNW 8.1 mph - N/A   Scattered Clouds
5:15 PM 62.6 °F 42.8 °F 48% 29.96 in 10.0 mi NNW 3.5 mph - N/A   Unknown
5:35 PM 62.6 °F 42.8 °F 48% 29.97 in 10.0 mi NW 3.5 mph - N/A   Unknown
5:55 PM 60.8 °F 44.6 °F 55% 29.97 in 10.0 mi Calm Calm - N/A   Clear
6:15 PM 59.0 °F 42.8 °F 55% 29.98 in 10.0 mi Calm Calm - N/A   Scattered Clouds
6:35 PM 55.4 °F 44.6 °F 67% 29.98 in 10.0 mi Calm Calm - N/A   Scattered Clouds
6:55 PM 51.8 °F 44.6 °F 76% 29.98 in 10.0 mi Calm Calm - N/A   Scattered Clouds
7:15 PM 51.8 °F 44.6 °F 76% 29.99 in 10.0 mi Calm Calm - N/A   Clear
7:35 PM 50.0 °F 44.6 °F 82% 29.99 in 10.0 mi Calm Calm - N/A   Scattered Clouds
7:55 PM 50.0 °F 44.6 °F 82% 29.99 in 10.0 mi Calm Calm - N/A   Scattered Clouds
8:15 PM 50.0 °F 44.6 °F 82% 30.00 in 10.0 mi Calm Calm - N/A   Clear
8:35 PM 48.2 °F 44.6 °F 87% 30.00 in 10.0 mi Calm Calm - N/A   Clear
8:55 PM 46.4 °F 44.6 °F 93% 30.00 in 10.0 mi Calm Calm - N/A   Clear
9:15 PM 46.4 °F 44.6 °F 93% 30.00 in 10.0 mi Calm Calm - N/A   Clear
9:35 PM 46.4 °F 44.6 °F 93% 30.01 in 10.0 mi Calm Calm - N/A   Clear
9:55 PM 48.2 °F 44.6 °F 87% 30.01 in 10.0 mi Calm Calm - N/A   Clear
10:15 PM 46.4 °F 44.6 °F 93% 30.01 in 10.0 mi Calm Calm - N/A   Clear
10:35 PM 46.4 °F 42.8 °F 87% 30.01 in 10.0 mi Calm Calm - N/A   Clear
10:55 PM 46.4 °F 44.6 °F 93% 30.01 in 10.0 mi Calm Calm - N/A   Clear
11:15 PM 46.4 °F 42.8 °F 87% 30.01 in 10.0 mi Calm Calm - N/A   Clear
11:35 PM 42.8 °F 42.8 °F 100% 30.01 in 10.0 mi Calm Calm - N/A   Clear
11:55 PM 44.6 °F 42.8 °F 93% 30.00 in 10.0 mi Calm Calm - N/A   Clear